Hourly Weather Rudnya

Today, 20 April, Tuesday

Time Temperature Precipitation Wind Pressure Humidity
00:00 +5°C° 0 mm 2 mps 749 mmHg 91%
01:00 +5°C° 0 mm 2 mps 748 mmHg 92%
02:00 +5°C° 0 mm 2 mps 748 mmHg 93%
03:00 +5°C° 0 mm 2 mps 748 mmHg 94%
04:00 +5°C° 0 mm 2 mps 748 mmHg 94%
05:00 +6°C° 0 mm 2 mps 747 mmHg 95%
06:00 +6°C° 0.1 mm 2 mps 747 mmHg 93%
07:00 +5°C° 0.1 mm 3 mps 747 mmHg 91%
08:00 +7°C° 0.1 mm 3 mps 747 mmHg 88%
09:00 +7°C° 0.1 mm 3 mps 747 mmHg 83%
10:00 +8°C° 0.1 mm 3 mps 747 mmHg 78%
11:00 +9°C° 0.1 mm 3 mps 746 mmHg 73%
12:00 +9°C° 0.1 mm 3 mps 746 mmHg 70%
13:00 +10°C° 0.1 mm 4 mps 746 mmHg 66%
14:00 +10°C° 0.1 mm 4 mps 745 mmHg 63%
15:00 +10°C° 0.1 mm 4 mps 745 mmHg 65%
16:00 +10°C° 0.1 mm 4 mps 745 mmHg 67%
17:00 +8°C° 0.1 mm 4 mps 745 mmHg 69%
18:00 +8°C° 0 mm 3 mps 745 mmHg 75%
19:00 +7°C° 0 mm 3 mps 745 mmHg 81%
20:00 +5°C° 0 mm 3 mps 745 mmHg 86%
21:00 +6°C° 0 mm 2 mps 744 mmHg 88%
22:00 +6°C° 0 mm 2 mps 744 mmHg 90%
23:00 +5°C° 0 mm 2 mps 744 mmHg 92%

Tomorrow, 21 April, Wednesday

Time Temperature Precipitation Wind Pressure Humidity
00:00 +5°C° 0 mm 2 mps 744 mmHg 92%
01:00 +5°C° 0 mm 2 mps 744 mmHg 92%
02:00 +4°C° 0 mm 3 mps 744 mmHg 92%
03:00 +3°C° 0 mm 3 mps 744 mmHg 92%
04:00 +4°C° 0 mm 2 mps 744 mmHg 92%
05:00 +4°C° 0 mm 2 mps 744 mmHg 92%
06:00 +5°C° 0 mm 2 mps 744 mmHg 86%
07:00 +5°C° 0 mm 2 mps 745 mmHg 81%
08:00 +6°C° 0 mm 2 mps 745 mmHg 75%
09:00 +8°C° 0 mm 3 mps 745 mmHg 70%
10:00 +9°C° 0 mm 3 mps 745 mmHg 64%
11:00 +10°C° 0 mm 3 mps 745 mmHg 59%
12:00 +10°C° 0 mm 3 mps 745 mmHg 58%
13:00 +11°C° 0 mm 3 mps 745 mmHg 56%
14:00 +12°C° 0 mm 2 mps 745 mmHg 55%
15:00 +12°C° 0.1 mm 2 mps 745 mmHg 57%
16:00 +12°C° 0.1 mm 2 mps 745 mmHg 59%
17:00 +13°C° 0.1 mm 2 mps 745 mmHg 61%
18:00 +10°C° 0 mm 2 mps 745 mmHg 67%
19:00 +9°C° 0 mm 2 mps 745 mmHg 73%
20:00 +8°C° 0 mm 2 mps 745 mmHg 79%
21:00 +8°C° 0 mm 2 mps 745 mmHg 83%
22:00 +7°C° 0 mm 2 mps 745 mmHg 86%
23:00 +7°C° 0 mm 2 mps 745 mmHg 90%

Day after tomorrow, 22 April, Thursday

Time Temperature Precipitation Wind Pressure Humidity
00:00 +7°C° 0 mm 2 mps 745 mmHg 90%
01:00 +6°C° 0 mm 2 mps 745 mmHg 90%
02:00 +6°C° 0 mm 2 mps 745 mmHg 90%
03:00 +6°C° 0 mm 2 mps 745 mmHg 92%
04:00 +6°C° 0 mm 2 mps 745 mmHg 93%
05:00 +5°C° 0 mm 3 mps 745 mmHg 94%
06:00 +7°C° 0 mm 3 mps 746 mmHg 89%
07:00 +8°C° 0 mm 4 mps 746 mmHg 83%
08:00 +10°C° 0 mm 4 mps 746 mmHg 77%
09:00 +12°C° 0.1 mm 4 mps 746 mmHg 68%
10:00 +13°C° 0.1 mm 5 mps 746 mmHg 59%
11:00 +15°C° 0.1 mm 5 mps 746 mmHg 50%
12:00 +15°C° 0.1 mm 5 mps 746 mmHg 52%
13:00 +15°C° 0.1 mm 4 mps 746 mmHg 53%
14:00 +15°C° 0.1 mm 4 mps 746 mmHg 54%
15:00 +13°C° 0.7 mm 4 mps 746 mmHg 64%
16:00 +12°C° 0.7 mm 3 mps 746 mmHg 74%
17:00 +12°C° 0.7 mm 2 mps 746 mmHg 83%
18:00 +10°C° 0 mm 2 mps 746 mmHg 86%
19:00 +9°C° 0 mm 2 mps 746 mmHg 89%
20:00 +9°C° 0 mm 2 mps 746 mmHg 91%
21:00 +8°C° 0.1 mm 2 mps 746 mmHg 92%
22:00 +8°C° 0.1 mm 3 mps 746 mmHg 93%
23:00 +7°C° 0.1 mm 3 mps 746 mmHg 94%

23 April, Friday

Time Temperature Precipitation Wind Pressure Humidity
00:00 +7°C° 0.8 mm 3 mps 746 mmHg 92%
01:00 +5°C° 0.8 mm 3 mps 747 mmHg 91%
02:00 +5°C° 0.8 mm 3 mps 747 mmHg 90%
03:00 +5°C° 0 mm 3 mps 747 mmHg 89%
04:00 +4°C° 0 mm 3 mps 747 mmHg 88%
05:00 +5°C° 0 mm 2 mps 747 mmHg 87%
06:00 +4°C° 0 mm 3 mps 748 mmHg 84%
07:00 +5°C° 0 mm 3 mps 748 mmHg 80%
08:00 +5°C° 0 mm 3 mps 748 mmHg 76%
09:00 +6°C° 0 mm 4 mps 748 mmHg 70%
10:00 +6°C° 0 mm 4 mps 748 mmHg 64%
11:00 +7°C° 0 mm 4 mps 748 mmHg 58%
12:00 +8°C° 0.1 mm 5 mps 748 mmHg 54%
13:00 +8°C° 0.1 mm 5 mps 748 mmHg 51%
14:00 +9°C° 0.1 mm 5 mps 748 mmHg 48%
15:00 +8°C° 0.1 mm 5 mps 748 mmHg 48%
16:00 +8°C° 0.1 mm 5 mps 748 mmHg 48%
17:00 +8°C° 0.1 mm 5 mps 748 mmHg 49%
18:00 +6°C° 0.1 mm 4 mps 748 mmHg 57%
19:00 +5°C° 0.1 mm 3 mps 748 mmHg 66%
20:00 +4°C° 0.1 mm 2 mps 749 mmHg 74%
21:00 +4°C° 0 mm 2 mps 749 mmHg 76%
22:00 +3°C° 0 mm 2 mps 749 mmHg 78%
23:00 +2°C° 0 mm 2 mps 749 mmHg 80%

24 April, Saturday

Time Temperature Precipitation Wind Pressure Humidity
00:00 +2°C° 0 mm 2 mps 748 mmHg 81%
01:00 +2°C° 0 mm 2 mps 748 mmHg 82%
02:00 +1°C° 0 mm 2 mps 748 mmHg 83%
03:00 +1°C° 0 mm 2 mps 748 mmHg 85%
04:00 +1°C° 0 mm 2 mps 748 mmHg 88%
05:00 +1°C° 0 mm 2 mps 748 mmHg 90%
06:00 0°C° 0.3 mm 3 mps 749 mmHg 89%
07:00 +1°C° 0.3 mm 3 mps 749 mmHg 88%
08:00 0°C° 0.3 mm 4 mps 749 mmHg 87%
09:00 +3°C° 0 mm 4 mps 749 mmHg 76%
10:00 +3°C° 0 mm 5 mps 749 mmHg 65%
11:00 +4°C° 0 mm 6 mps 749 mmHg 54%
12:00 +5°C° 0.1 mm 6 mps 749 mmHg 51%
13:00 +5°C° 0.1 mm 6 mps 749 mmHg 49%
14:00 +7°C° 0.1 mm 6 mps 749 mmHg 47%
15:00 +7°C° 0.2 mm 6 mps 749 mmHg 50%
16:00 +5°C° 0.2 mm 6 mps 749 mmHg 54%
17:00 +6°C° 0.2 mm 5 mps 749 mmHg 57%
18:00 +5°C° 0.1 mm 4 mps 749 mmHg 63%
19:00 +4°C° 0.1 mm 3 mps 749 mmHg 70%
20:00 +2°C° 0.1 mm 3 mps 749 mmHg 76%
21:00 +2°C° 0 mm 3 mps 749 mmHg 79%
22:00 +1°C° 0 mm 3 mps 749 mmHg 81%
23:00 +1°C° 0 mm 3 mps 749 mmHg 84%

25 April, Sunday

Time Temperature Precipitation Wind Pressure Humidity
00:00 +1°C° 0 mm 3 mps 749 mmHg 85%
01:00 +1°C° 0 mm 2 mps 748 mmHg 87%
02:00 +1°C° 0 mm 2 mps 748 mmHg 88%
03:00 +1°C° 0.1 mm 2 mps 748 mmHg 91%
04:00 +1°C° 0.1 mm 2 mps 748 mmHg 94%
05:00 +1°C° 0.1 mm 2 mps 748 mmHg 97%
06:00 0°C° 0.4 mm 3 mps 748 mmHg 95%
07:00 +1°C° 0.4 mm 3 mps 748 mmHg 93%
08:00 +1°C° 0.4 mm 3 mps 748 mmHg 91%
09:00 +2°C° 0.1 mm 3 mps 748 mmHg 80%
10:00 +3°C° 0.1 mm 4 mps 749 mmHg 70%
11:00 +4°C° 0.1 mm 4 mps 749 mmHg 60%
12:00 +4°C° 0 mm 4 mps 749 mmHg 58%
13:00 +5°C° 0 mm 4 mps 748 mmHg 56%
14:00 +5°C° 0 mm 4 mps 748 mmHg 54%
15:00 +5°C° 0 mm 4 mps 748 mmHg 53%
16:00 +5°C° 0 mm 4 mps 748 mmHg 53%
17:00 +5°C° 0 mm 3 mps 748 mmHg 52%
18:00 +4°C° 0 mm 3 mps 748 mmHg 59%
19:00 +3°C° 0 mm 2 mps 748 mmHg 66%
20:00 +2°C° 0 mm 2 mps 748 mmHg 73%
21:00 +2°C° 0 mm 2 mps 748 mmHg 75%
22:00 +1°C° 0 mm 2 mps 748 mmHg 77%
23:00 +1°C° 0 mm 2 mps 748 mmHg 78%
Show more